TimeEST,TemperatureF,Dew PointF,Humidity,Sea Level PressureIn,VisibilityMPH,Wind Direction,Wind SpeedMPH,Gust SpeedMPH,PrecipitationIn,Events,Conditions,WindDirDegrees,DateUTC
12:15 AM,34.9,26.1,70,30.13,10.0,SSW,5.8,-,N/A,,Clear,210,2012-12-14 05:15:00
12:35 AM,34.7,26.2,71,30.14,10.0,SSW,6.9,-,N/A,,Clear,210,2012-12-14 05:35:00
1:15 AM,34.2,26.1,72,30.13,10.0,SSW,4.6,-,N/A,,Clear,210,2012-12-14 06:15:00
1:35 AM,33.8,26.2,74,30.13,10.0,SSW,3.5,-,N/A,,Clear,210,2012-12-14 06:35:00
1:55 AM,33.8,26.1,73,30.13,10.0,SSW,3.5,-,N/A,,Clear,210,2012-12-14 06:55:00
2:15 AM,33.6,25.7,73,30.14,10.0,South,4.6,-,N/A,,Clear,190,2012-12-14 07:15:00
2:35 AM,32.5,26.1,77,30.14,10.0,SSW,3.5,-,N/A,,Clear,200,2012-12-14 07:35:00
2:55 AM,32.2,25.9,78,30.15,10.0,SSW,4.6,-,N/A,,Clear,200,2012-12-14 07:55:00
3:15 AM,32.2,26.1,78,30.16,10.0,SSW,4.6,-,N/A,,Clear,210,2012-12-14 08:15:00
3:35 AM,32.0,26.1,79,30.16,10.0,SSW,4.6,-,N/A,,Clear,200,2012-12-14 08:35:00
3:55 AM,32.0,25.7,78,30.15,10.0,SSW,3.5,-,N/A,,Clear,200,2012-12-14 08:55:00
4:15 AM,32.0,25.9,78,30.15,10.0,SSW,4.6,-,N/A,,Clear,200,2012-12-14 09:15:00
4:35 AM,31.6,25.5,78,30.16,10.0,SSW,3.5,-,N/A,,Clear,200,2012-12-14 09:35:00
4:55 AM,31.5,25.9,80,30.16,10.0,SSW,4.6,-,N/A,,Clear,210,2012-12-14 09:55:00
5:15 AM,31.6,25.9,79,30.16,10.0,SSW,4.6,-,N/A,,Clear,210,2012-12-14 10:15:00
5:35 AM,31.5,25.7,79,30.16,10.0,SSW,3.5,-,N/A,,Clear,210,2012-12-14 10:35:00
5:55 AM,31.8,26.2,80,30.16,10.0,SSW,3.5,-,N/A,,Clear,210,2012-12-14 10:55:00
6:15 AM,31.1,25.5,80,30.17,10.0,Calm,Calm,-,N/A,,Clear,0,2012-12-14 11:15:00
6:35 AM,30.9,26.1,82,30.17,10.0,SSW,3.5,-,N/A,,Clear,210,2012-12-14 11:35:00
6:55 AM,31.3,26.6,83,30.17,10.0,Calm,Calm,-,N/A,,Clear,0,2012-12-14 11:55:00
7:15 AM,31.3,26.4,82,30.18,10.0,Calm,Calm,-,N/A,,Clear,0,2012-12-14 12:15:00
7:35 AM,31.8,26.8,82,30.18,10.0,Calm,Calm,-,N/A,,Clear,0,2012-12-14 12:35:00
7:55 AM,29.7,25.0,83,30.18,10.0,Calm,Calm,-,N/A,,Clear,0,2012-12-14 12:55:00
8:15 AM,28.4,25.2,88,30.18,10.0,Calm,Calm,-,N/A,,Clear,0,2012-12-14 13:15:00
8:35 AM,29.7,26.8,89,30.18,10.0,Calm,Calm,-,N/A,,Clear,0,2012-12-14 13:35:00
8:55 AM,28.6,25.9,90,30.18,10.0,Calm,Calm,-,N/A,,Clear,0,2012-12-14 13:55:00
9:15 AM,31.6,28.8,89,30.18,10.0,Calm,Calm,-,N/A,,Clear,0,2012-12-14 14:15:00
9:35 AM,33.3,29.7,87,30.19,10.0,Calm,Calm,-,N/A,,Clear,0,2012-12-14 14:35:00
9:55 AM,34.7,29.3,81,30.19,10.0,SSW,3.5,-,N/A,,Clear,210,2012-12-14 14:55:00
10:15 AM,36.5,29.7,76,30.20,10.0,SSW,3.5,-,N/A,,Clear,200,2012-12-14 15:15:00
10:35 AM,37.6,29.8,74,30.21,10.0,Calm,Calm,-,N/A,,Clear,0,2012-12-14 15:35:00
10:55 AM,39.2,30.7,72,30.21,10.0,SSW,3.5,-,N/A,,Clear,200,2012-12-14 15:55:00
11:15 AM,40.3,31.1,70,30.22,10.0,SSW,4.6,-,N/A,,Clear,210,2012-12-14 16:15:00
11:35 AM,41.5,31.6,68,30.21,10.0,Calm,Calm,-,N/A,,Clear,0,2012-12-14 16:35:00
11:55 AM,43.9,32.0,63,30.21,10.0,Calm,Calm,-,N/A,,Clear,0,2012-12-14 16:55:00
12:15 PM,44.4,32.9,64,30.20,10.0,Calm,Calm,-,N/A,,Clear,0,2012-12-14 17:15:00
12:35 PM,44.6,33.4,65,30.19,10.0,Calm,Calm,-,N/A,,Clear,0,2012-12-14 17:35:00
12:55 PM,45.7,34.3,65,30.18,10.0,East,4.6,-,N/A,,Clear,90,2012-12-14 17:55:00
1:15 PM,45.9,34.2,64,30.17,10.0,East,3.5,-,N/A,,Clear,80,2012-12-14 18:15:00
1:35 PM,46.8,33.6,60,30.17,10.0,Calm,Calm,-,N/A,,Clear,0,2012-12-14 18:35:00
1:55 PM,47.1,33.1,58,30.16,10.0,Calm,Calm,-,N/A,,Clear,0,2012-12-14 18:55:00
2:15 PM,46.9,33.1,59,30.15,10.0,Calm,Calm,-,N/A,,Clear,0,2012-12-14 19:15:00
2:35 PM,47.5,32.4,56,30.15,10.0,Calm,Calm,-,N/A,,Clear,0,2012-12-14 19:35:00
2:55 PM,48.2,32.0,54,30.15,10.0,Calm,Calm,-,N/A,,Clear,0,2012-12-14 19:55:00
3:15 PM,48.4,32.0,53,30.15,10.0,SE,3.5,-,N/A,,Clear,130,2012-12-14 20:15:00
3:35 PM,47.8,32.0,54,30.14,10.0,SSE,3.5,-,N/A,,Clear,160,2012-12-14 20:35:00
3:55 PM,48.0,31.6,53,30.15,10.0,Calm,Calm,-,N/A,,Clear,0,2012-12-14 20:55:00
4:15 PM,47.5,31.3,53,30.14,10.0,SE,3.5,-,N/A,,Clear,130,2012-12-14 21:15:00
4:35 PM,46.0,30.9,56,30.14,10.0,Calm,Calm,-,N/A,,Clear,0,2012-12-14 21:35:00
5:15 PM,43.9,31.1,61,30.14,10.0,Calm,Calm,-,N/A,,Clear,0,2012-12-14 22:15:00
5:35 PM,41.0,30.9,67,30.15,10.0,Calm,Calm,-,N/A,,Clear,0,2012-12-14 22:35:00
5:55 PM,36.3,27.7,71,30.16,10.0,Calm,Calm,-,N/A,,Clear,0,2012-12-14 22:55:00
6:15 PM,34.9,29.5,81,30.16,10.0,Calm,Calm,-,N/A,,Clear,0,2012-12-14 23:15:00
6:35 PM,33.8,30.0,86,30.16,10.0,Calm,Calm,-,N/A,,Clear,0,2012-12-14 23:35:00
6:55 PM,34.0,30.2,86,30.16,10.0,Calm,Calm,-,N/A,,Clear,0,2012-12-14 23:55:00
7:15 PM,32.0,28.9,88,30.16,10.0,Calm,Calm,-,N/A,,Clear,0,2012-12-15 00:15:00
7:36 PM,30.6,28.0,90,30.16,10.0,Calm,Calm,-,N/A,,Clear,0,2012-12-15 00:36:00
7:55 PM,32.9,30.9,92,30.16,10.0,Calm,Calm,-,N/A,,Clear,0,2012-12-15 00:55:00
8:15 PM,32.5,30.7,93,30.16,10.0,Calm,Calm,-,N/A,,Clear,0,2012-12-15 01:15:00
8:35 PM,33.1,31.3,93,30.16,10.0,Calm,Calm,-,N/A,,Clear,0,2012-12-15 01:35:00
8:55 PM,31.6,28.6,88,30.17,10.0,Calm,Calm,-,N/A,,Clear,0,2012-12-15 01:55:00
9:15 PM,31.5,29.5,92,30.17,7.0,Calm,Calm,-,N/A,,Clear,0,2012-12-15 02:15:00
9:35 PM,29.3,27.3,92,30.17,10.0,Calm,Calm,-,N/A,,Clear,0,2012-12-15 02:35:00
9:56 PM,32.0,30.7,95,30.16,10.0,Calm,Calm,-,N/A,,Clear,0,2012-12-15 02:56:00
10:15 PM,29.3,27.5,93,30.15,7.0,Calm,Calm,-,N/A,,Clear,0,2012-12-15 03:15:00
10:35 PM,31.1,29.5,94,30.13,10.0,Calm,Calm,-,N/A,,Clear,0,2012-12-15 03:35:00
10:55 PM,30.9,29.5,94,30.13,10.0,Calm,Calm,-,N/A,,Clear,0,2012-12-15 03:55:00
11:15 PM,29.5,28.0,94,30.12,7.0,Calm,Calm,-,N/A,,Clear,0,2012-12-15 04:15:00
11:36 PM,31.1,29.5,94,30.11,7.0,Calm,Calm,-,N/A,,Clear,0,2012-12-15 04:36:00
11:55 PM,32.7,31.6,96,30.12,10.0,Calm,Calm,-,N/A,,Clear,0,2012-12-15 04:55:00